| time (UTC) | temp C | wind direction | speed KPH | gust KPH | rain 1hr cm | rain 24hr cm | rain mn cm | humidity % | barometer mb |
| 20260507081600 | 11 | 262 | 4.8 | 14.5 | 0.00 | 0.99 | 0.00 | 80 | 1013.4 |
| 20260507081058 | 11 | 248 | 9.7 | 17.7 | 0.00 | 0.99 | 0.00 | 80 | 1013.3 |
| 20260507080600 | 11 | 254 | 8.0 | 17.7 | 0.00 | 0.99 | 0.00 | 80 | 1013.3 |
| 20260507080126 | 11 | 223 | 8.0 | 17.7 | 0.00 | 0.99 | 0.00 | 79 | 1013.4 |
| 20260507075559 | 11 | 264 | 9.7 | 14.5 | 0.00 | 0.99 | 0.00 | 79 | 1013.4 |
| 20260507075058 | 11 | 224 | 6.4 | 19.3 | 0.00 | 0.99 | 0.00 | 79 | 1013.3 |
| 20260507074616 | 12 | 233 | 8.0 | 16.1 | 0.00 | 0.99 | 0.00 | 79 | 1013.2 |
| 20260507074559 | 11 | 240 | 11.3 | 19.3 | 0.00 | 0.99 | 0.00 | 78 | 1013.3 |
| 20260507073557 | 12 | 285 | 9.7 | 16.1 | 0.00 | 0.99 | 0.00 | 80 | 1013.1 |
| 20260507073059 | 11 | 247 | 8.0 | 22.5 | 0.00 | 0.99 | 0.00 | 81 | 1013.0 |
| 20260507072555 | 11 | 274 | 12.9 | 22.5 | 0.00 | 0.99 | 0.00 | 81 | 1013.0 |
| 20260507072052 | 11 | 235 | 8.0 | 19.3 | 0.00 | 0.99 | 0.00 | 80 | 1013.0 |
| 20260507071554 | 11 | 247 | 12.9 | 19.3 | 0.00 | 0.99 | 0.00 | 79 | 1012.9 |
| 20260507071053 | 11 | 245 | 6.4 | 17.7 | 0.00 | 0.99 | 0.00 | 83 | 1013.0 |
| 20260507070552 | 11 | 228 | 8.0 | 17.7 | 0.00 | 0.99 | 0.00 | 82 | 1012.9 |
| 20260507070252 | 10 | 195 | 4.8 | 14.5 | 0.00 | 0.99 | 0.00 | 84 | 1012.8 |
| 20260507070121 | 11 | 168 | 8.0 | 14.5 | 0.00 | 0.99 | 0.00 | 83 | 1012.8 |
| 20260507065050 | 10 | 213 | 6.4 | 16.1 | 0.00 | 0.99 | 0.00 | 85 | 1012.7 |
| 20260507064549 | 10 | 223 | 4.8 | 16.1 | 0.00 | 0.99 | 0.00 | 85 | 1012.7 |
| 20260507064049 | 10 | 233 | 6.4 | 16.1 | 0.00 | 0.99 | 0.00 | 85 | 1012.5 |
| 20260507063549 | 10 | 212 | 8.0 | 16.1 | 0.00 | 0.99 | 0.00 | 85 | 1012.7 |
| 20260507063540 | 10 | 233 | 9.7 | 14.5 | 0.00 | 0.99 | 0.00 | 86 | 1012.5 |
| 20260507062551 | 10 | 240 | 3.2 | 11.3 | 0.00 | 0.99 | 0.00 | 87 | 1012.5 |
| 20260507062051 | 10 | 196 | 4.8 | 11.3 | 0.00 | 0.99 | 0.00 | 87 | 1012.4 |
| 20260507061549 | 9 | 213 | 4.8 | 9.7 | 0.00 | 0.99 | 0.00 | 87 | 1012.4 |
| 20260507061050 | 9 | 230 | 3.2 | 14.5 | 0.00 | 0.99 | 0.00 | 87 | 1012.4 |
| 20260507060954 | 9 | 219 | 4.8 | 14.5 | 0.00 | 0.99 | 0.00 | 87 | 1012.4 |
| 20260507060104 | 9 | 247 | 6.4 | 14.5 | 0.00 | 0.99 | 0.00 | 87 | 1012.4 |
| 20260507060001 | 9 | 219 | 6.4 | 14.5 | 0.00 | 0.99 | 0.00 | 88 | 1012.3 |
| 20260507055047 | 9 | 238 | 4.8 | 12.9 | 0.00 | 0.99 | 0.00 | 88 | 1012.3 |
| 20260507054548 | 9 | 230 | 4.8 | 12.9 | 0.00 | 0.99 | 0.00 | 88 | 1012.2 |
| 20260507054047 | 9 | 226 | 6.4 | 14.5 | 0.00 | 0.99 | 0.00 | 89 | 1012.1 |
| 20260507053547 | 8 | 219 | 8.0 | 14.5 | 0.00 | 0.99 | 0.00 | 90 | 1012.0 |
| 20260507053042 | 8 | 221 | 3.2 | 11.3 | 0.00 | 0.99 | 0.00 | 91 | 1012.0 |
| 20260507052546 | 8 | 226 | 8.0 | 11.3 | 0.00 | 0.99 | 0.00 | 92 | 1011.9 |
| 20260507052050 | 8 | 213 | 3.2 | 11.3 | 0.00 | 0.99 | 0.00 | 93 | 1011.8 |
| 20260507051553 | 7 | 197 | 0.0 | 1.6 | 0.00 | 0.99 | 0.00 | 93 | 1012.0 |
| 20260507051150 | 7 | 221 | 0.0 | 3.2 | 0.00 | 0.99 | 0.00 | 93 | 1011.9 |
| 20260507051049 | 7 | 221 | 0.0 | 3.2 | 0.00 | 0.99 | 0.00 | 93 | 1011.9 |
| 20260507050106 | 7 | 221 | 0.0 | 4.8 | 0.00 | 0.99 | 0.00 | 93 | 1011.7 |
| 20260507045534 | 6 | 221 | 0.0 | 4.8 | 0.00 | 0.99 | 0.00 | 93 | 1011.7 |
| 20260507045036 | 6 | 221 | 0.0 | 4.8 | 0.00 | 0.99 | 0.00 | 93 | 1011.7 |
| 20260507044534 | 6 | 221 | 0.0 | 3.2 | 0.00 | 0.99 | 0.00 | 92 | 1011.7 |
| 20260507044035 | 6 | 221 | 0.0 | 1.6 | 0.00 | 0.99 | 0.00 | 92 | 1011.7 |
| 20260507043539 | 6 | 221 | 0.0 | 1.6 | 0.00 | 0.99 | 0.00 | 92 | 1011.5 |
| 20260507043044 | 5 | 221 | 0.0 | 1.6 | 0.00 | 0.99 | 0.00 | 91 | 1011.5 |
| 20260507043027 | 5 | 221 | 0.0 | 0.0 | 0.00 | 0.99 | 0.00 | 91 | 1011.4 |
| 20260507042036 | 6 | 221 | 0.0 | 0.0 | 0.00 | 0.99 | 0.00 | 91 | 1011.3 |
| 20260507041535 | 6 | 221 | 0.0 | 0.0 | 0.00 | 0.99 | 0.00 | 91 | 1011.4 |
| 20260507041058 | 6 | 221 | 0.0 | 1.6 | 0.00 | 0.99 | 0.00 | 91 | 1011.4 |
| 20260507041041 | 6 | 221 | 0.0 | 0.0 | 0.00 | 0.99 | 0.00 | 90 | 1011.4 |
| 20260507040055 | 6 | 221 | 0.0 | 1.6 | 0.00 | 0.99 | 0.00 | 91 | 1011.5 |
| 20260507035527 | 6 | 221 | 0.0 | 0.0 | 0.00 | 0.99 | 0.00 | 91 | 1011.5 |
| 20260507035021 | 6 | 221 | 0.0 | 0.0 | 0.00 | 0.99 | 0.00 | 91 | 1011.4 |
| 20260507034524 | 6 | 221 | 0.0 | 1.6 | 0.00 | 0.99 | 0.00 | 90 | 1011.4 |
| 20260507034027 | 6 | 221 | 0.0 | 1.6 | 0.00 | 0.99 | 0.00 | 91 | 1011.3 |
| 20260507033520 | 7 | 221 | 0.0 | 3.2 | 0.00 | 0.99 | 0.00 | 91 | 1011.2 |
| 20260507033019 | 7 | 221 | 0.0 | 3.2 | 0.00 | 0.99 | 0.00 | 91 | 1011.1 |
| 20260507032516 | 7 | 221 | 1.6 | 3.2 | 0.00 | 0.99 | 0.00 | 91 | 1011.2 |
| 20260507032014 | 7 | 221 | 1.6 | 3.2 | 0.00 | 0.99 | 0.00 | 91 | 1011.2 |
| 20260507031714 | 7 | 221 | 1.6 | 4.8 | 0.00 | 0.99 | 0.00 | 91 | 1011.1 |
| 20260507030512 | 7 | 219 | 1.6 | 4.8 | 0.00 | 0.99 | 0.00 | 91 | 1011.1 |
| 20260507030014 | 7 | 213 | 1.6 | 4.8 | 0.00 | 0.99 | 0.00 | 91 | 1011.0 |
| 20260507025512 | 7 | 209 | 1.6 | 4.8 | 0.00 | 0.99 | 0.00 | 92 | 1011.0 |
| 20260507025010 | 6 | 207 | 1.6 | 4.8 | 0.00 | 0.99 | 0.00 | 91 | 1011.0 |
| 20260507024509 | 7 | 216 | 1.6 | 4.8 | 0.00 | 0.99 | 0.00 | 91 | 1011.0 |
| 20260507024008 | 7 | 216 | 0.0 | 4.8 | 0.00 | 0.99 | 0.00 | 91 | 1010.9 |
| 20260507023512 | 7 | 217 | 0.0 | 9.7 | 0.00 | 0.99 | 0.00 | 91 | 1010.8 |
| 20260507023036 | 7 | 217 | 0.0 | 12.9 | 0.00 | 0.99 | 0.00 | 92 | 1010.8 |
| 20260507022528 | 7 | 247 | 6.4 | 12.9 | 0.00 | 0.99 | 0.00 | 92 | 1010.8 |
| 20260507021636 | 6 | 207 | 1.6 | 3.2 | 0.00 | 0.99 | 0.00 | 91 | 1010.9 |
| 20260507021531 | 6 | 212 | 3.2 | 4.8 | 0.00 | 0.99 | 0.00 | 92 | 1010.9 |
| 20260507020521 | 6 | 207 | 1.6 | 1.6 | 0.00 | 0.99 | 0.00 | 91 | 1010.9 |
| 20260507020029 | 6 | 207 | 0.0 | 1.6 | 0.00 | 0.99 | 0.00 | 91 | 1010.9 |
| 20260507015515 | 7 | 207 | 0.0 | 0.0 | 0.00 | 0.99 | 0.00 | 91 | 1010.8 |
| 20260507015022 | 7 | 207 | 0.0 | 1.6 | 0.00 | 0.99 | 0.00 | 91 | 1010.8 |
| 20260507014522 | 7 | 207 | 0.0 | 1.6 | 0.00 | 0.99 | 0.00 | 91 | 1010.8 |
| 20260507014007 | 7 | 207 | 0.0 | 1.6 | 0.00 | 0.99 | 0.00 | 91 | 1010.8 |
| 20260507013509 | 7 | 207 | 0.0 | 3.2 | 0.00 | 0.99 | 0.00 | 91 | 1010.7 |
| 20260507013009 | 7 | 207 | 0.0 | 4.8 | 0.00 | 0.99 | 0.00 | 91 | 1010.7 |
| 20260507012516 | 7 | 207 | 1.6 | 4.8 | 0.00 | 0.99 | 0.00 | 91 | 1010.7 |
| 20260507012022 | 7 | 207 | 1.6 | 4.8 | 0.00 | 0.99 | 0.00 | 91 | 1010.6 |
| 20260507011510 | 7 | 206 | 1.6 | 3.2 | 0.00 | 0.99 | 0.00 | 91 | 1010.6 |
| 20260507011008 | 7 | 204 | 1.6 | 4.8 | 0.00 | 0.99 | 0.00 | 91 | 1010.6 |
| 20260507010505 | 7 | 204 | 0.0 | 4.8 | 0.00 | 0.99 | 0.00 | 91 | 1010.6 |
| 20260507010009 | 7 | 203 | 1.6 | 4.8 | 0.00 | 0.99 | 0.00 | 91 | 1010.6 |
| 20260507005506 | 7 | 200 | 3.2 | 3.2 | 0.00 | 0.99 | 0.00 | 91 | 1010.7 |
| 20260507005007 | 7 | 200 | 1.6 | 1.6 | 0.00 | 0.99 | 0.00 | 90 | 1010.6 |
| 20260507004516 | 7 | 200 | 0.0 | 1.6 | 0.00 | 0.99 | 0.00 | 90 | 1010.6 |
| 20260507004013 | 7 | 200 | 0.0 | 1.6 | 0.00 | 0.99 | 0.00 | 89 | 1010.4 |
| 20260507003527 | 7 | 200 | 0.0 | 1.6 | 0.00 | 0.99 | 0.00 | 89 | 1010.4 |
| 20260507003027 | 7 | 200 | 0.0 | 1.6 | 0.00 | 0.99 | 0.00 | 89 | 1010.4 |
| 20260507002522 | 8 | 200 | 0.0 | 3.2 | 0.00 | 0.99 | 0.00 | 89 | 1010.4 |
| 20260507002446 | 8 | 200 | 0.0 | 3.2 | 0.00 | 0.99 | 0.00 | 89 | 1010.4 |
| 20260507001941 | 8 | 200 | 1.6 | 3.2 | 0.00 | 0.99 | 0.00 | 89 | 1010.4 |
| 20260507001025 | 8 | 200 | 3.2 | 4.8 | 0.00 | 0.99 | 0.00 | 89 | 1010.4 |
| 20260507000511 | 8 | 200 | 3.2 | 4.8 | 0.00 | 0.99 | 0.00 | 89 | 1010.5 |
| 20260507000011 | 8 | 200 | 1.6 | 4.8 | 0.00 | 0.99 | 0.00 | 89 | 1010.7 |
| 20260506235505 | 8 | 213 | 1.6 | 8.0 | 0.00 | 0.99 | 0.00 | 89 | 1010.5 |
| 20260506235004 | 8 | 212 | 3.2 | 8.0 | 0.00 | 0.99 | 0.00 | 89 | 1010.6 |
| 20260506234901 | 8 | 214 | 3.2 | 8.0 | 0.00 | 0.99 | 0.00 | 89 | 1010.6 |
| 20260506234008 | 8 | 241 | 1.6 | 8.0 | 0.00 | 0.99 | 0.00 | 89 | 1010.5 |
| 20260506233508 | 8 | 247 | 4.8 | 8.0 | 0.00 | 0.99 | 0.00 | 89 | 1010.5 |
| 20260506233003 | 8 | 214 | 1.6 | 8.0 | 0.00 | 0.99 | 0.00 | 89 | 1010.5 |
| 20260506232500 | 8 | 210 | 1.6 | 4.8 | 0.00 | 0.99 | 0.00 | 89 | 1010.5 |
| 20260506232003 | 8 | 206 | 3.2 | 4.8 | 0.00 | 0.99 | 0.00 | 89 | 1010.4 |
| 20260506231500 | 8 | 206 | 1.6 | 4.8 | 0.00 | 0.99 | 0.00 | 89 | 1010.4 |
| 20260506231000 | 9 | 210 | 1.6 | 4.8 | 0.00 | 0.99 | 0.00 | 89 | 1010.5 |
| 20260506230501 | 9 | 209 | 3.2 | 4.8 | 0.00 | 0.99 | 0.00 | 89 | 1010.5 |
| 20260506230014 | 9 | 220 | 1.6 | 4.8 | 0.00 | 0.99 | 0.00 | 88 | 1010.4 |
| 20260506225502 | 9 | 214 | 1.6 | 8.0 | 0.00 | 0.99 | 0.00 | 88 | 1010.4 |
| 20260506225416 | 9 | 216 | 1.6 | 8.0 | 0.00 | 0.99 | 0.00 | 88 | 1010.2 |
| 20260506224958 | 9 | 216 | 3.2 | 4.8 | 0.00 | 0.99 | 0.00 | 88 | 1010.4 |
| 20260506224000 | 9 | 262 | 1.6 | 9.7 | 0.00 | 0.99 | 0.00 | 88 | 1010.2 |
| 20260506223554 | 9 | 223 | 3.2 | 11.3 | 0.00 | 0.99 | 0.00 | 88 | 1010.5 |
| 20260506223515 | 9 | 220 | 3.2 | 11.3 | 0.00 | 0.99 | 0.00 | 88 | 1010.4 |
| 20260506222933 | 9 | 223 | 4.8 | 9.7 | 0.00 | 0.99 | 0.00 | 88 | 1010.4 |
| 20260506222002 | 9 | 209 | 1.6 | 9.7 | 0.00 | 0.99 | 0.00 | 88 | 1010.2 |
| 20260506221502 | 9 | 193 | 3.2 | 9.7 | 0.00 | 0.99 | 0.00 | 88 | 1010.1 |
| 20260506221001 | 10 | 196 | 3.2 | 9.7 | 0.00 | 0.99 | 0.00 | 87 | 1010.1 |
| 20260506220525 | 10 | 212 | 1.6 | 4.8 | 0.00 | 0.99 | 0.00 | 87 | 1010.1 |
| 20260506220005 | 10 | 214 | 3.2 | 4.8 | 0.00 | 0.99 | 0.99 | 87 | 1010.0 |
| 20260506215503 | 10 | 216 | 3.2 | 8.0 | 0.00 | 0.99 | 0.99 | 87 | 1009.9 |
| 20260506215004 | 10 | 219 | 3.2 | 8.0 | 0.00 | 0.99 | 0.99 | 86 | 1009.9 |
| 20260506214501 | 10 | 207 | 3.2 | 8.0 | 0.00 | 0.99 | 0.99 | 86 | 1009.9 |
| 20260506214001 | 10 | 204 | 1.6 | 9.7 | 0.00 | 0.99 | 0.99 | 86 | 1010.0 |
| 20260506213506 | 10 | 206 | 3.2 | 11.3 | 0.00 | 0.99 | 0.99 | 86 | 1010.0 |
| 20260506213002 | 10 | 212 | 6.4 | 11.3 | 0.00 | 0.99 | 0.99 | 86 | 1009.9 |
| 20260506212503 | 10 | 206 | 3.2 | 12.9 | 0.00 | 0.99 | 0.99 | 86 | 1009.9 |
| 20260506212004 | 10 | 207 | 6.4 | 12.9 | 0.00 | 0.99 | 0.99 | 87 | 1009.8 |
| 20260506211502 | 10 | 206 | 6.4 | 11.3 | 0.00 | 0.99 | 0.99 | 87 | 1009.7 |
| 20260506211002 | 10 | 243 | 6.4 | 14.5 | 0.00 | 0.99 | 0.99 | 87 | 1009.7 |
| 20260506210538 | 10 | 224 | 4.8 | 11.3 | 0.00 | 0.99 | 0.99 | 86 | 1009.5 |
| 20260506210513 | 10 | 233 | 6.4 | 14.5 | 0.00 | 0.99 | 0.99 | 86 | 1009.7 |
| 20260506210011 | 10 | 209 | 4.8 | 11.3 | 0.00 | 0.99 | 0.99 | 86 | 1009.6 |
| 20260506205004 | 10 | 228 | 3.2 | 12.9 | 0.00 | 0.99 | 0.99 | 86 | 1009.5 |
| 20260506204506 | 10 | 207 | 4.8 | 17.7 | 0.00 | 0.99 | 0.99 | 86 | 1009.4 |
| 20260506204112 | 10 | 204 | 4.8 | 16.1 | 0.00 | 0.99 | 0.99 | 87 | 1009.5 |
| 20260506204020 | 10 | 223 | 6.4 | 17.7 | 0.00 | 0.99 | 0.99 | 86 | 1009.5 |
| 20260506203005 | 10 | 207 | 6.4 | 19.3 | 0.00 | 0.99 | 0.99 | 87 | 1009.4 |
| 20260506202506 | 10 | 196 | 12.9 | 19.3 | 0.00 | 0.99 | 0.99 | 87 | 1009.6 |
| 20260506202003 | 11 | 219 | 8.0 | 17.7 | 0.00 | 0.99 | 0.99 | 87 | 1009.3 |
| 20260506201503 | 11 | 220 | 8.0 | 14.5 | 0.00 | 0.99 | 0.99 | 87 | 1009.3 |
| 20260506201005 | 11 | 193 | 6.4 | 11.3 | 0.00 | 0.99 | 0.99 | 87 | 1009.3 |
| 20260506200504 | 11 | 166 | 3.2 | 14.5 | 0.00 | 0.99 | 0.99 | 86 | 1009.2 |
| 20260506200005 | 11 | 254 | 4.8 | 14.5 | 0.00 | 0.99 | 0.99 | 86 | 1009.0 |
| 20260506195505 | 11 | 250 | 6.4 | 17.7 | 0.00 | 0.99 | 0.99 | 86 | 1009.0 |
| 20260506195004 | 11 | 212 | 6.4 | 17.7 | 0.00 | 0.99 | 0.99 | 86 | 1008.9 |
| 20260506194503 | 11 | 244 | 9.7 | 24.1 | 0.00 | 0.99 | 0.99 | 87 | 1008.7 |
| 20260506194004 | 11 | 262 | 12.9 | 24.1 | 0.00 | 0.99 | 0.99 | 87 | 1008.7 |
| 20260506193502 | 11 | 252 | 9.7 | 22.5 | 0.00 | 0.99 | 0.99 | 87 | 1008.5 |
| 20260506193003 | 11 | 265 | 11.3 | 22.5 | 0.00 | 0.99 | 0.99 | 87 | 1008.5 |
| 20260506192918 | 11 | 257 | 9.7 | 19.3 | 0.00 | 0.99 | 0.99 | 87 | 1008.5 |
| 20260506192001 | 11 | 251 | 9.7 | 27.4 | 0.00 | 0.99 | 0.99 | 87 | 1008.3 |
| 20260506191501 | 11 | 238 | 12.9 | 27.4 | 0.00 | 0.99 | 0.99 | 87 | 1008.3 |
| 20260506191005 | 11 | 238 | 8.0 | 16.1 | 0.00 | 0.99 | 0.99 | 87 | 1008.3 |
| 20260506190506 | 11 | 238 | 8.0 | 17.7 | 0.00 | 0.99 | 0.99 | 87 | 1008.1 |
| 20260506190002 | 11 | 237 | 8.0 | 25.7 | 0.00 | 0.99 | 0.99 | 87 | 1007.9 |
| 20260506185459 | 11 | 214 | 11.3 | 25.7 | 0.00 | 0.99 | 0.99 | 87 | 1007.8 |
| 20260506185000 | 11 | 237 | 8.0 | 17.7 | 0.00 | 0.99 | 0.99 | 87 | 1007.7 |
| 20260506184502 | 11 | 237 | 9.7 | 17.7 | 0.03 | 0.99 | 0.99 | 87 | 1007.7 |
| 20260506184001 | 11 | 195 | 8.0 | 22.5 | 0.03 | 0.99 | 0.99 | 87 | 1007.8 |
| 20260506183701 | 11 | 0 | 11.3 | 22.5 | 0.03 | 0.99 | 0.99 | 87 | 1007.6 |
| 20260506182500 | 11 | 214 | 8.0 | 22.5 | 0.03 | 0.99 | 0.99 | 86 | 1007.6 |
| 20260506181958 | 11 | 226 | 11.3 | 22.5 | 0.03 | 0.99 | 0.99 | 85 | 1007.6 |
| 20260506181501 | 11 | 240 | 8.0 | 22.5 | 0.03 | 0.99 | 0.99 | 85 | 1007.5 |
| 20260506181429 | 12 | 258 | 9.7 | 30.6 | 0.03 | 0.99 | 0.99 | 84 | 1007.4 |
| 20260506180456 | 12 | 223 | 16.1 | 30.6 | 0.03 | 0.99 | 0.99 | 83 | 1007.4 |
| 20260506175955 | 13 | 196 | 12.9 | 29.0 | 0.03 | 0.99 | 0.99 | 84 | 1007.3 |
| 20260506175456 | 13 | 216 | 9.7 | 27.4 | 0.03 | 0.99 | 0.99 | 85 | 1007.1 |
| 20260506174955 | 13 | 197 | 6.4 | 12.9 | 0.03 | 0.99 | 0.99 | 87 | 1006.8 |
| 20260506174656 | 13 | 214 | 6.4 | 12.9 | 0.00 | 0.99 | 0.99 | 86 | 1006.6 |
| 20260506173501 | 13 | 185 | 3.2 | 12.9 | 0.00 | 0.99 | 0.99 | 87 | 1006.3 |
| 20260506172958 | 13 | 202 | 4.8 | 12.9 | 0.00 | 0.99 | 0.99 | 87 | 1006.1 |
| 20260506172457 | 13 | 176 | 6.4 | 11.3 | 0.00 | 0.99 | 0.99 | 89 | 1006.0 |
| 20260506171956 | 13 | 192 | 3.2 | 4.8 | 0.00 | 0.99 | 0.99 | 90 | 1005.9 |
| 20260506171457 | 13 | 162 | 1.6 | 3.2 | 0.03 | 0.99 | 0.99 | 90 | 1005.5 |
| 20260506170953 | 13 | 162 | 1.6 | 3.2 | 0.05 | 0.99 | 0.99 | 90 | 1005.4 |
| 20260506170454 | 13 | 82 | 0.0 | 0.0 | 0.05 | 0.99 | 0.99 | 90 | 1005.3 |
| 20260506165954 | 13 | 82 | 0.0 | 0.0 | 0.10 | 0.89 | 0.99 | 90 | 1005.2 |
| 20260506165456 | 13 | 82 | 0.0 | 0.0 | 0.15 | 0.89 | 0.99 | 90 | 1005.1 |
| 20260506164955 | 13 | 82 | 0.0 | 1.6 | 0.23 | 0.89 | 0.99 | 91 | 1005.0 |
| 20260506164454 | 13 | 82 | 0.0 | 3.2 | 0.23 | 0.89 | 0.99 | 90 | 1005.1 |
| 20260506163954 | 12 | 82 | 0.0 | 3.2 | 0.33 | 0.89 | 0.99 | 91 | 1005.1 |
| 20260506163454 | 12 | 82 | 1.6 | 11.3 | 0.41 | 0.89 | 0.99 | 91 | 1005.1 |
| 20260506162955 | 12 | 82 | 4.8 | 12.9 | 0.53 | 0.89 | 0.99 | 91 | 1004.8 |
| 20260506162454 | 12 | 0 | 6.4 | 12.9 | 0.76 | 0.89 | 0.99 | 90 | 1004.8 |
| 20260506161956 | 11 | 0 | 4.8 | 9.7 | 0.84 | 0.89 | 0.99 | 90 | 1005.0 |
| 20260506161453 | 11 | 224 | 1.6 | 12.9 | 0.84 | 0.89 | 0.97 | 89 | 1005.6 |
| 20260506161009 | 11 | 0 | 4.8 | 19.3 | 0.84 | 0.89 | 0.94 | 89 | 1005.6 |
| 20260506160510 | 11 | 324 | 8.0 | 19.3 | 0.86 | 0.89 | 0.89 | 89 | 1005.9 |
| 20260506155953 | 11 | 266 | 3.2 | 11.3 | 0.84 | 0.05 | 0.86 | 90 | 1006.3 |
| 20260506155453 | 11 | 47 | 3.2 | 8.0 | 0.79 | 0.05 | 0.79 | 88 | 1006.8 |
| 20260506155152 | 11 | 233 | 0.0 | 3.2 | 0.74 | 0.05 | 0.76 | 88 | 1006.7 |
| 20260506153953 | 11 | 233 | 0.0 | 11.3 | 0.66 | 0.05 | 0.66 | 86 | 1006.6 |
| 20260506153455 | 12 | 233 | 3.2 | 24.1 | 0.58 | 0.05 | 0.56 | 84 | 1006.7 |
| 20260506152955 | 12 | 207 | 3.2 | 29.0 | 0.43 | 0.05 | 0.41 | 82 | 1007.0 |
| 20260506152926 | 13 | 250 | 19.3 | 30.6 | 0.23 | 0.05 | 0.18 | 77 | 1007.0 |
| 20260506151953 | 15 | 248 | 16.1 | 30.6 | 0.15 | 0.05 | 0.15 | 78 | 1006.3 |
| 20260506151454 | 15 | 221 | 11.3 | 14.5 | 0.13 | 0.05 | 0.13 | 80 | 1005.6 |
| 20260506150953 | 16 | 228 | 6.4 | 12.9 | 0.10 | 0.05 | 0.10 | 77 | 1005.2 |
| 20260506150453 | 16 | 118 | 3.2 | 9.7 | 0.05 | 0.05 | 0.05 | 75 | 1005.0 |
| 20260506145954 | 17 | 248 | 4.8 | 9.7 | 0.05 | 0.03 | 0.05 | 72 | 1004.7 |
| 20260506145942 | 18 | 8 | 1.6 | 9.7 | 0.05 | 0.03 | 0.05 | 66 | 1004.6 |
| 20260506145931 | 18 | 355 | 3.2 | 12.9 | 0.03 | 0.03 | 0.03 | 65 | 1004.4 |
| 20260506144453 | 18 | 31 | 3.2 | 12.9 | 0.00 | 0.03 | 0.00 | 61 | 1004.3 |
| 20260506143958 | 19 | 63 | 6.4 | 12.9 | 0.00 | 0.03 | 0.00 | 57 | 1004.1 |
| 20260506143455 | 19 | 45 | 8.0 | 14.5 | 0.00 | 0.03 | 0.00 | 56 | 1004.1 |
| 20260506142953 | 20 | 32 | 9.7 | 16.1 | 0.00 | 0.03 | 0.00 | 55 | 1004.1 |
| 20260506142451 | 20 | 51 | 11.3 | 16.1 | 0.00 | 0.03 | 0.00 | 56 | 1004.1 |
| 20260506141951 | 20 | 56 | 9.7 | 14.5 | 0.00 | 0.03 | 0.00 | 54 | 1004.2 |
| 20260506141454 | 20 | 111 | 9.7 | 14.5 | 0.00 | 0.03 | 0.00 | 54 | 1004.3 |
| 20260506141003 | 21 | 76 | 6.4 | 11.3 | 0.00 | 0.03 | 0.00 | 52 | 1004.3 |
| 20260506140453 | 21 | 38 | 6.4 | 11.3 | 0.00 | 0.03 | 0.00 | 54 | 1004.5 |
| 20260506135952 | 21 | 55 | 3.2 | 14.5 | 0.00 | 0.03 | 0.00 | 54 | 1004.5 |
| 20260506135458 | 21 | 41 | 11.3 | 19.3 | 0.00 | 0.03 | 0.00 | 53 | 1004.4 |
| 20260506134954 | 21 | 79 | 8.0 | 19.3 | 0.00 | 0.03 | 0.00 | 55 | 1004.4 |
| 20260506134913 | 21 | 63 | 8.0 | 16.1 | 0.00 | 0.03 | 0.00 | 54 | 1004.4 |
| 20260506133951 | 21 | 0 | 9.7 | 14.5 | 0.00 | 0.03 | 0.00 | 57 | 1004.5 |
| 20260506133453 | 20 | 7 | 4.8 | 9.7 | 0.00 | 0.03 | 0.00 | 58 | 1004.6 |
| 20260506132951 | 20 | 6 | 3.2 | 16.1 | 0.00 | 0.03 | 0.00 | 56 | 1004.6 |
| 20260506132450 | 20 | 0 | 11.3 | 16.1 | 0.00 | 0.03 | 0.00 | 56 | 1004.7 |
| 20260506131949 | 20 | 25 | 8.0 | 19.3 | 0.00 | 0.03 | 0.00 | 57 | 1004.6 |
| 20260506131449 | 20 | 78 | 9.7 | 19.3 | 0.00 | 0.03 | 0.00 | 57 | 1004.6 |
| 20260506130953 | 20 | 127 | 0.0 | 11.3 | 0.00 | 0.03 | 0.00 | 53 | 1004.7 |
| 20260506130450 | 20 | 178 | 3.2 | 11.3 | 0.00 | 0.03 | 0.00 | 56 | 1004.8 |
| 20260506125950 | 20 | 89 | 1.6 | 17.7 | 0.00 | 0.03 | 0.00 | 56 | 1004.9 |
| 20260506125451 | 20 | 114 | 3.2 | 17.7 | 0.00 | 0.03 | 0.00 | 56 | 1004.9 |
| 20260506124949 | 20 | 75 | 6.4 | 14.5 | 0.00 | 0.03 | 0.00 | 57 | 1004.9 |
| 20260506124451 | 19 | 85 | 8.0 | 9.7 | 0.00 | 0.03 | 0.00 | 59 | 1005.1 |
| 20260506123953 | 19 | 148 | 0.0 | 3.2 | 0.00 | 0.03 | 0.00 | 57 | 1005.2 |
| 20260506123447 | 20 | 141 | 0.0 | 4.8 | 0.00 | 0.03 | 0.00 | 58 | 1005.2 |
| 20260506122945 | 19 | 18 | 1.6 | 4.8 | 0.00 | 0.03 | 0.00 | 59 | 1005.2 |
| 20260506122446 | 19 | 113 | 1.6 | 4.8 | 0.00 | 0.03 | 0.00 | 58 | 1005.3 |
| 20260506121954 | 19 | 56 | 3.2 | 12.9 | 0.00 | 0.03 | 0.00 | 61 | 1005.3 |
| 20260506121454 | 19 | 113 | 3.2 | 12.9 | 0.00 | 0.03 | 0.00 | 56 | 1005.4 |
| 20260506120952 | 19 | 107 | 0.0 | 11.3 | 0.00 | 0.03 | 0.00 | 57 | 1005.4 |
| 20260506120507 | 19 | 6 | 3.2 | 4.8 | 0.00 | 0.03 | 0.00 | 63 | 1005.5 |
| 20260506120452 | 19 | 86 | 6.4 | 11.3 | 0.00 | 0.03 | 0.00 | 58 | 1005.4 |
| 20260506115446 | 18 | 113 | 0.0 | 14.5 | 0.00 | 0.03 | 0.00 | 59 | 1005.5 |
| 20260506114944 | 18 | 113 | 1.6 | 16.1 | 0.00 | 0.03 | 0.00 | 56 | 1005.3 |
| 20260506114445 | 18 | 80 | 8.0 | 16.1 | 0.00 | 0.03 | 0.00 | 56 | 1005.2 |
| 20260506113944 | 18 | 120 | 4.8 | 16.1 | 0.00 | 0.03 | 0.00 | 56 | 1005.3 |
| 20260506113445 | 18 | 87 | 6.4 | 14.5 | 0.00 | 0.03 | 0.00 | 59 | 1005.4 |
| 20260506113021 | 18 | 254 | 0.0 | 8.0 | 0.00 | 0.03 | 0.00 | 58 | 1006.1 |
| 20260506112952 | 18 | 111 | 4.8 | 9.7 | 0.00 | 0.03 | 0.00 | 57 | 1005.7 |
| 20260506111944 | 18 | 261 | 3.2 | 4.8 | 0.00 | 0.03 | 0.00 | 59 | 1006.3 |
| 20260506111443 | 19 | 32 | 1.6 | 8.0 | 0.00 | 0.03 | 0.00 | 60 | 1006.3 |
| 20260506111424 | 18 | 30 | 3.2 | 9.7 | 0.00 | 0.03 | 0.00 | 63 | 1006.3 |
| 20260506110442 | 18 | 4 | 3.2 | 9.7 | 0.00 | 0.03 | 0.00 | 63 | 1006.4 |
| 20260506105942 | 18 | 96 | 3.2 | 9.7 | 0.00 | 0.03 | 0.00 | 66 | 1006.5 |
| 20260506105440 | 18 | 49 | 3.2 | 9.7 | 0.00 | 0.03 | 0.00 | 64 | 1006.5 |
| 20260506104945 | 18 | 78 | 4.8 | 9.7 | 0.00 | 0.03 | 0.00 | 63 | 1006.4 |
| 20260506104441 | 18 | 183 | 0.0 | 9.7 | 0.00 | 0.03 | 0.00 | 63 | 1006.4 |
| 20260506104431 | 18 | 110 | 0.0 | 9.7 | 0.00 | 0.03 | 0.00 | 59 | 1006.5 |
| 20260506103441 | 18 | 138 | 1.6 | 4.8 | 0.00 | 0.03 | 0.00 | 59 | 1006.6 |
| 20260506102943 | 18 | 237 | 1.6 | 8.0 | 0.00 | 0.03 | 0.00 | 64 | 1006.7 |
| 20260506102446 | 18 | 39 | 0.0 | 9.7 | 0.00 | 0.03 | 0.00 | 65 | 1006.9 |
| 20260506101943 | 18 | 61 | 4.8 | 9.7 | 0.00 | 0.03 | 0.00 | 66 | 1006.9 |
| 20260506101442 | 18 | 66 | 4.8 | 8.0 | 0.00 | 0.03 | 0.00 | 64 | 1006.9 |
| 20260506101026 | 18 | 107 | 3.2 | 9.7 | 0.00 | 0.03 | 0.00 | 63 | 1006.9 |
| 20260506100950 | 18 | 71 | 3.2 | 8.0 | 0.00 | 0.03 | 0.00 | 66 | 1006.9 |
| 20260506095944 | 18 | 23 | 1.6 | 11.3 | 0.00 | 0.03 | 0.00 | 64 | 1006.8 |
| 20260506095648 | 18 | 79 | 4.8 | 11.3 | 0.00 | 0.03 | 0.00 | 65 | 1006.9 |
| 20260506094908 | 18 | 344 | 0.0 | 3.2 | 0.00 | 0.03 | 0.00 | 65 | 1007.0 |
| 20260506093939 | 18 | 340 | 1.6 | 8.0 | 0.00 | 0.03 | 0.00 | 68 | 1006.8 |
| 20260506093442 | 17 | 3 | 3.2 | 11.3 | 0.00 | 0.03 | 0.00 | 65 | 1006.7 |
| 20260506093426 | 17 | 55 | 6.4 | 11.3 | 0.00 | 0.03 | 0.00 | 69 | 1006.7 |
| 20260506092446 | 17 | 73 | 6.4 | 11.3 | 0.00 | 0.03 | 0.00 | 67 | 1006.9 |
| 20260506091936 | 17 | 59 | 4.8 | 11.3 | 0.00 | 0.03 | 0.00 | 68 | 1006.8 |
| 20260506091437 | 17 | 100 | 4.8 | 11.3 | 0.00 | 0.03 | 0.00 | 69 | 1006.8 |
| 20260506090938 | 17 | 120 | 0.0 | 4.8 | 0.00 | 0.03 | 0.00 | 69 | 1006.9 |
| 20260506090444 | 17 | 157 | 0.0 | 4.8 | 0.00 | 0.03 | 0.00 | 70 | 1006.9 |
| 20260506085939 | 17 | 37 | 0.0 | 4.8 | 0.00 | 0.03 | 0.00 | 70 | 1007.0 |
| 20260506085438 | 17 | 37 | 1.6 | 8.0 | 0.00 | 0.03 | 0.00 | 67 | 1007.1 |
| 20260506084936 | 17 | 38 | 3.2 | 8.0 | 0.00 | 0.03 | 0.00 | 67 | 1007.1 |
| 20260506084433 | 17 | 262 | 1.6 | 3.2 | 0.00 | 0.03 | 0.00 | 68 | 1007.0 |
| 20260506083931 | 17 | 283 | 0.0 | 3.2 | 0.00 | 0.03 | 0.00 | 66 | 1007.2 |
| 20260506083433 | 17 | 281 | 0.0 | 3.2 | 0.00 | 0.03 | 0.00 | 69 | 1007.1 |
| 20260506082930 | 16 | 255 | 1.6 | 3.2 | 0.00 | 0.03 | 0.00 | 68 | 1007.1 |
| 20260506082905 | 16 | 255 | 0.0 | 4.8 | 0.00 | 0.03 | 0.00 | 69 | 1007.1 |